| time (UTC) | temp C | wind direction | speed KPH | gust KPH | rain 1hr cm | rain 24hr cm | rain mn cm | humidity % | barometer mb |
| 20260901140135 | 25 | 0 | 0.0 | 1.6 | 0.00 | 0.00 | 0.00 | 88 | 1014.2 |
| 20260901134602 | 25 | 0 | 0.0 | 1.6 | 0.00 | 0.00 | 0.00 | 89 | 1014.2 |
| 20260901133102 | 25 | 0 | 0.0 | 0.0 | 0.00 | 0.00 | 0.00 | 89 | 1014.3 |
| 20260901131604 | 24 | 0 | 0.0 | 0.0 | 0.00 | 0.00 | 0.00 | 91 | 1014.3 |
| 20260901130105 | 24 | 0 | 0.0 | 1.6 | 0.00 | 0.00 | 0.00 | 92 | 1014.1 |
| 20260901124601 | 23 | 0 | 0.0 | 0.0 | 0.00 | 0.00 | 0.00 | 93 | 1014.0 |
| 20260901123058 | 23 | 0 | 0.0 | 0.0 | 0.00 | 0.00 | 0.00 | 94 | 1014.2 |
| 20260901121606 | 22 | 0 | 0.0 | 0.0 | 0.00 | 0.00 | 0.00 | 94 | 1013.9 |
| 20260901120100 | 22 | 0 | 0.0 | 0.0 | 0.00 | 0.00 | 0.00 | 95 | 1013.7 |
| 20260901114558 | 22 | 0 | 0.0 | 0.0 | 0.00 | 0.00 | 0.00 | 95 | 1013.5 |
| 20260901113104 | 22 | 0 | 0.0 | 0.0 | 0.00 | 0.00 | 0.00 | 94 | 1013.3 |
| 20260901111558 | 22 | 0 | 0.0 | 0.0 | 0.00 | 0.00 | 0.00 | 94 | 1013.2 |
| 20260901104605 | 22 | 0 | 0.0 | 1.6 | 0.00 | 0.18 | 0.00 | 94 | 1012.9 |
| 20260901103059 | 22 | 0 | 0.0 | 0.0 | 0.00 | 0.18 | 0.00 | 94 | 1012.9 |
| 20260901101608 | 22 | 0 | 0.0 | 0.0 | 0.00 | 0.18 | 0.00 | 93 | 1012.9 |
| 20260901100101 | 22 | 0 | 0.0 | 0.0 | 0.00 | 0.18 | 0.00 | 92 | 1013.1 |
| 20260901094601 | 22 | 0 | 0.0 | 1.6 | 0.00 | 0.25 | 0.00 | 92 | 1013.0 |
| 20260901093110 | 23 | 256 | 0.0 | 1.6 | 0.00 | 0.25 | 0.00 | 92 | 1013.0 |
| 20260901091603 | 23 | 266 | 1.6 | 4.8 | 0.00 | 0.25 | 0.00 | 92 | 1013.1 |
| 20260901090059 | 23 | 257 | 1.6 | 4.8 | 0.00 | 0.25 | 0.00 | 93 | 1013.0 |
| 20260901084600 | 22 | 260 | 1.6 | 3.2 | 0.00 | 0.25 | 0.00 | 94 | 1013.1 |
| 20260901083059 | 22 | 257 | 0.0 | 1.6 | 0.00 | 0.25 | 0.00 | 95 | 1013.0 |
| 20260901081603 | 21 | 0 | 0.0 | 0.0 | 0.00 | 0.25 | 0.00 | 94 | 1012.9 |
| 20260901080207 | 21 | 0 | 0.0 | 0.0 | 0.00 | 0.25 | 0.00 | 94 | 1012.9 |
| 20260901074557 | 22 | 0 | 0.0 | 0.0 | 0.00 | 0.25 | 0.00 | 94 | 1013.0 |
| 20260901073102 | 22 | 0 | 0.0 | 0.0 | 0.00 | 0.25 | 0.00 | 94 | 1013.0 |
| 20260901071600 | 22 | 0 | 0.0 | 0.0 | 0.00 | 0.25 | 0.00 | 93 | 1012.9 |
| 20260901070132 | 22 | 0 | 0.0 | 0.0 | 0.00 | 0.25 | 0.00 | 91 | 1012.9 |
| 20260901064611 | 23 | 0 | 0.0 | 1.6 | 0.00 | 0.25 | 0.00 | 91 | 1012.8 |
| 20260901063105 | 23 | 274 | 0.0 | 1.6 | 0.00 | 0.25 | 0.00 | 93 | 1012.9 |
| 20260901061610 | 22 | 0 | 0.0 | 1.6 | 0.00 | 0.25 | 0.00 | 94 | 1013.0 |
| 20260901060103 | 22 | 0 | 0.0 | 1.6 | 0.00 | 0.25 | 0.00 | 95 | 1013.0 |
| 20260901054608 | 22 | 264 | 0.0 | 1.6 | 0.00 | 0.25 | 0.00 | 95 | 1013.0 |
| 20260901053111 | 21 | 0 | 0.0 | 0.0 | 0.00 | 0.25 | 0.00 | 94 | 1013.0 |
| 20260901051600 | 21 | 0 | 0.0 | 0.0 | 0.00 | 0.25 | 0.00 | 94 | 1013.0 |
| 20260901050104 | 22 | 0 | 0.0 | 0.0 | 0.00 | 0.25 | 0.00 | 94 | 1013.1 |
| 20260901044617 | 22 | 0 | 0.0 | 0.0 | 0.00 | 0.25 | 0.25 | 94 | 1013.1 |
| 20260901043059 | 22 | 0 | 0.0 | 0.0 | 0.00 | 0.25 | 0.25 | 94 | 1013.1 |
| 20260901041558 | 22 | 0 | 0.0 | 0.0 | 0.00 | 0.25 | 0.25 | 94 | 1013.0 |
| 20260901040104 | 22 | 0 | 0.0 | 0.0 | 0.00 | 0.25 | 0.25 | 94 | 1013.2 |
| 20260901034559 | 22 | 0 | 0.0 | 0.0 | 0.00 | 0.25 | 0.25 | 93 | 1013.2 |
| 20260901033056 | 22 | 0 | 0.0 | 0.0 | 0.00 | 0.25 | 0.25 | 93 | 1013.3 |
| 20260901031559 | 23 | 0 | 0.0 | 0.0 | 0.00 | 0.25 | 0.25 | 92 | 1013.3 |
| 20260901030059 | 23 | 0 | 0.0 | 0.0 | 0.00 | 0.25 | 0.25 | 92 | 1013.3 |
| 20260901024603 | 23 | 0 | 0.0 | 0.0 | 0.00 | 0.25 | 0.25 | 92 | 1013.2 |
| 20260901023102 | 23 | 0 | 0.0 | 0.0 | 0.00 | 0.25 | 0.25 | 91 | 1013.3 |
| 20260901021611 | 23 | 0 | 0.0 | 0.0 | 0.00 | 0.25 | 0.25 | 91 | 1013.2 |
| 20260901020104 | 24 | 0 | 0.0 | 1.6 | 0.00 | 0.25 | 0.25 | 89 | 1013.2 |
| 20260901014604 | 24 | 0 | 0.0 | 0.0 | 0.00 | 0.25 | 0.25 | 89 | 1012.9 |
| 20260901013121 | 24 | 0 | 0.0 | 0.0 | 0.00 | 0.25 | 0.25 | 89 | 1012.7 |
| 20260901011602 | 25 | 0 | 0.0 | 0.0 | 0.00 | 0.25 | 0.25 | 88 | 1012.6 |
| 20260901010115 | 25 | 0 | 0.0 | 0.0 | 0.00 | 0.25 | 0.25 | 86 | 1012.4 |
| 20260901004604 | 26 | 0 | 0.0 | 1.6 | 0.00 | 0.25 | 0.25 | 84 | 1012.3 |
| 20260901003102 | 26 | 0 | 0.0 | 0.0 | 0.00 | 0.25 | 0.25 | 83 | 1012.2 |
| 20260901001606 | 26 | 0 | 0.0 | 0.0 | 0.00 | 0.25 | 0.25 | 82 | 1012.2 |
| 20260901000058 | 26 | 0 | 0.0 | 1.6 | 0.00 | 0.25 | 0.25 | 81 | 1012.2 |
| 20260831234600 | 27 | 0 | 0.0 | 1.6 | 0.00 | 0.25 | 0.25 | 78 | 1012.1 |
| 20260831233100 | 27 | 0 | 0.0 | 1.6 | 0.00 | 0.25 | 0.25 | 76 | 1011.9 |
| 20260831231609 | 27 | 278 | 1.6 | 3.2 | 0.00 | 0.25 | 0.25 | 75 | 1011.8 |
| 20260831230105 | 28 | 277 | 0.0 | 4.8 | 0.00 | 0.25 | 0.25 | 74 | 1011.8 |
| 20260831224635 | 28 | 233 | 3.2 | 9.7 | 0.00 | 0.25 | 0.25 | 72 | 1012.0 |
| 20260831223059 | 28 | 277 | 4.8 | 9.7 | 0.00 | 0.25 | 0.25 | 71 | 1011.7 |
| 20260831221620 | 28 | 269 | 6.4 | 12.9 | 0.00 | 0.25 | 0.25 | 70 | 1011.7 |
| 20260831220107 | 28 | 262 | 4.8 | 16.1 | 0.00 | 0.25 | 0.25 | 71 | 1011.9 |
| 20260831214604 | 28 | 311 | 3.2 | 8.0 | 0.00 | 0.30 | 0.25 | 71 | 1011.7 |
| 20260831213101 | 28 | 256 | 4.8 | 9.7 | 0.00 | 0.30 | 0.25 | 73 | 1011.9 |
| 20260831211607 | 28 | 239 | 3.2 | 9.7 | 0.00 | 0.30 | 0.25 | 71 | 1012.0 |
| 20260831210103 | 28 | 274 | 1.6 | 4.8 | 0.00 | 0.30 | 0.25 | 74 | 1011.9 |
| 20260831204559 | 27 | 0 | 0.0 | 1.6 | 0.00 | 0.43 | 0.25 | 75 | 1011.5 |
| 20260831203058 | 27 | 0 | 0.0 | 0.0 | 0.00 | 0.43 | 0.25 | 76 | 1011.3 |
| 20260831201600 | 27 | 0 | 0.0 | 3.2 | 0.00 | 0.43 | 0.25 | 74 | 1011.3 |
| 20260831200100 | 27 | 263 | 3.2 | 6.4 | 0.00 | 0.43 | 0.25 | 73 | 1011.9 |
| 20260831194620 | 28 | 270 | 0.0 | 1.6 | 0.00 | 0.48 | 0.25 | 72 | 1011.8 |
| 20260831193100 | 28 | 0 | 1.6 | 4.8 | 0.00 | 0.48 | 0.25 | 70 | 1011.7 |
| 20260831191559 | 28 | 251 | 4.8 | 8.0 | 0.00 | 0.48 | 0.25 | 68 | 1011.8 |
| 20260831190119 | 28 | 260 | 6.4 | 11.3 | 0.00 | 0.48 | 0.25 | 66 | 1011.9 |
| 20260831184603 | 29 | 276 | 6.4 | 12.9 | 0.00 | 0.66 | 0.25 | 63 | 1011.7 |
| 20260831183108 | 28 | 264 | 6.4 | 16.1 | 0.00 | 0.66 | 0.25 | 63 | 1011.9 |
| 20260831181600 | 28 | 255 | 9.7 | 16.1 | 0.00 | 0.66 | 0.25 | 63 | 1012.0 |
| 20260831180100 | 29 | 280 | 6.4 | 16.1 | 0.00 | 0.66 | 0.25 | 62 | 1012.0 |
| 20260831174610 | 29 | 283 | 3.2 | 9.7 | 0.00 | 0.66 | 0.25 | 65 | 1011.8 |
| 20260831173102 | 28 | 274 | 4.8 | 12.9 | 0.00 | 0.66 | 0.25 | 67 | 1012.1 |
| 20260831171605 | 27 | 285 | 4.8 | 9.7 | 0.00 | 0.66 | 0.25 | 69 | 1012.3 |
| 20260831170106 | 27 | 284 | 1.6 | 8.0 | 0.00 | 0.66 | 0.25 | 71 | 1012.4 |
| 20260831164607 | 27 | 291 | 4.8 | 9.7 | 0.00 | 0.66 | 0.25 | 70 | 1012.5 |
| 20260831163100 | 27 | 281 | 4.8 | 12.9 | 0.00 | 0.66 | 0.25 | 71 | 1012.6 |
| 20260831161601 | 26 | 278 | 3.2 | 8.0 | 0.00 | 0.66 | 0.25 | 70 | 1012.5 |
| 20260831154630 | 26 | 277 | 3.2 | 8.0 | 0.00 | 0.66 | 0.25 | 71 | 1012.4 |
| 20260831153104 | 25 | 257 | 3.2 | 6.4 | 0.00 | 0.66 | 0.25 | 73 | 1012.5 |
| 20260831151612 | 25 | 285 | 3.2 | 9.7 | 0.00 | 0.66 | 0.25 | 73 | 1012.7 |
| 20260831150056 | 25 | 267 | 3.2 | 6.4 | 0.00 | 0.66 | 0.25 | 76 | 1012.5 |
| 20260831144602 | 24 | 248 | 1.6 | 3.2 | 0.00 | 0.66 | 0.25 | 79 | 1012.5 |
| 20260831143108 | 23 | 0 | 1.6 | 3.2 | 0.00 | 0.66 | 0.25 | 82 | 1012.5 |
| 20260831141559 | 23 | 287 | 0.0 | 3.2 | 0.00 | 0.66 | 0.25 | 83 | 1012.5 |